Showing default

IRIDIUM 167, 43931

Orbit data source: Space-Track

IRIDIUM 167, 43931 is a payload satellite owned by Iridium (US) in LEO that was launched on Fri, 11 Jan 2019 UTC via an FALCON 9 launch vehicle from the Air Force Western Test Range (AFWTR). Payload-class satellites include a variety of spacecraft equipped with specific instruments for various scientific and technological missions. These include communications satellites like Starlink; space stations such as the ISS; scientific satellites like the Hubble; Earth observation satellites from companies like Planet Labs, Umbra, and HawkEye 360; GPS; miniature CubeSats for education and research; and military/defense satellites.

Loading next visibility...
Identifier
43931, 2019-002K
Orbit
LEO
Country
Flag of USUS
Related business
Manufacturer
NGIS SSG Gilbert
Mission
Operational Commercial Communications
Bus & Motor
ELITEBUS, Unknown motor
Mass
860 kg wet, 700 kg dry
Launch date (UTC)
2019-01-11 (7 years ago)
Launch vehicle
FALCON 9
Launch site
Air Force Western Test Range (AFWTR)
Object type
Payload
Rocket body
Debris
Shape & HBR
Trap Box + 2 Pan, 4.8 m
Radar Cross Section
10.154 m², Large (>1 m²)

Expand to show TLE details & history
Last TLE update: 1 day ago

TLE from 1 day ago
0 IRIDIUM 167
1 43931U 19002K   25348.75679468  .00000219  00000-0  70976-4 0  9991
2 43931  86.3966  70.6948 0002453 105.3794 254.7673 14.34216744362525
Epoch: 2025-12-14T18:09Z
TLE epoch observation values (Epoch: 2025-12-14T18:09:47.060Z)
Latitude
-0.00001°
Longitude
74.58358°
Altitude
781.183 km
Speed
7.463 km/s
True Right ascension
04h 42m 46s
True Declination
0° 00' 00"
Sunlit
Object was in full shadow at epoch
Visualization orbit readout
Latitude
Unknown
Longitude
Unknown
Altitude
Unknown
Speed
Unknown
Apparent Right ascension
Unknown
Apparent Declination
Unknown
Sunlit
N/A
Visualization observer readout
Local Sidereal Time
17:45:40
Azimuth
Unknown
Elevation
Unknown
Doppler factor
Unknown
Orbital elements
Apogee altitude
776.39 km
Perigee altitude
772.88 km
Semi-major axis
7,152.772 km
Eccentricity
0.00025
Inclination
86.3966°
RAAN
70.6948°
Arg. of periapsis
105.3794°
True anomaly
254.74018°
Mean anomaly
254.7673°
Eccentric anomaly
254.75374°
Mean motion
3.58783 °/min
Orbital period
100.34 mins
BSTAR
0.000070976
Loading maneuver chart data...
Computing Atmospheric mass density...
Loading historical data...
Loading historical data...
Loading historical data...
Loading historical data...
Loading historical data...
Loading historical data...
Loading historical data...

Documentation

Showing up to 5 results
|